Tracking 25995 objects as of 19-Aug-2022
HD Live streaming from Space Station
objects crossing your sky now

ATLAS CENTAUR 2 DEB

Track ATLAS CENTAUR 2 DEB now!
10-day predictions


NORAD ID: 739
Int'l Code: 1963-047H
Perigee: 488.0 km
Apogee: 1,435.0 km
Inclination: 30.4 °
Period: 104.1 minutes
Semi major axis: 7332 km
RCS: 0.2965 m2 (medium)
Launch date: November 27, 1963
Source: United States (US)
Launch site: AIR FORCE EASTERN TEST RANGE (AFETR)

Note: This is SATELLITE DEBRIS
aabbcc
Your satellite tracking list
Your tracking list is empty




NASA's NSSDC Master Catalog

Two Line Element Set (TLE):
1 00739U 63047H   22230.69461211  .00000714  00000-0  10594-3 0  9992
2 00739  30.4248   3.4552 0645758 155.1070 208.2153 13.82698167947579
Source of the keplerian elements: AFSPC